Regional Weather Roundup
Issued by NWS Kansas City/Pleasant Hill, MO

Home | Current Version | Previous Version | Graphics & Text | Print | Product List | Glossary Off
Versions: 1 2 3 4 5 6 7 8 9 10 11 12 13 14 15 16 17 18 19 20 21 22 23 24 25 26 27 28 29 30 31 32 33 34 35 36 37 38 39 40 41 42 43 44 45 46 47 48 49 50

000
ASUS43 KEAX 241004
RWREAX

WEATHER ROUNDUP FOR EASTERN KANSAS AND NORTHWEST MISSOURI
NATIONAL WEATHER SERVICE KANSAS CITY/PLEASANT HILL MO
500 AM CDT THU APR 24 2014

KSZ040-057-103>105-MOZ028-029-037-043-241100-
...KANSAS CITY METROPOLITAN AREA...

CITY           SKY/WX    TMP DP  RH WIND       PRES   REMARKS
K.C. INTL      CLOUDY    66  49  54 S9        29.67F
K.C. DOWNTOWN  CLOUDY    67  49  52 SW9       29.68R
LEES SUMMIT    CLOUDY    66  45  46 SW13G25   29.65R
OLATHE - IXD   CLOUDY    63  50  62 N7        29.66R
OLATHE - OJC   CLOUDY    64  48  56 CALM      29.65R
LAWRENCE       LGT RAIN  68  56  65 SW3       29.63F

$$

MOZ001>008-011>017-020>025-030>033-038>040-044>046-053-054-241100-
...NORTHERN AND CENTRAL MISSOURI...

CITY           SKY/WX    TMP DP  RH WIND       PRES   REMARKS
ST. JOSEPH     CLOUDY    65  53  65 S13       29.63F
MOSBY            N/A     66  46  48 SW7       29.70R
WHITEMAN AFB   CLOUDY    63  36  36 S20G30    29.67F
CLINTON        CLOUDY    64  45  48 S14       29.71F
SEDALIA        CLOUDY    63  39  41 S20G26    29.72F
WARSAW         NOT AVBL
MARSHALL         N/A     64  43  45 SE17      29.70F
CHILLICOTHE      N/A     62  41  46 SE10G21   29.67F
MOBERLY        MOCLDY    55  37  50 SE13      29.75F
KIRKSVILLE     MOCLDY    54  37  52 SE16      29.73F

$$

MOZ041-047>049-056>058-063>065-088>090-097-241100-
...EASTERN AND SOUTHERN MISSOURI...

CITY           SKY/WX    TMP DP  RH WIND       PRES   REMARKS
ST. LOUIS INTL MOCLDY    55  33  43 SE8       29.90R
SPIRIT OF STL  PTCLDY    54  32  43 CALM      29.87S
COLUMBIA       MOCLDY    57  37  47 SE16      29.78F
JEFFERSON CITY PTCLDY    59  37  44 SE14      29.79F
MEXICO         PTCLDY    50  37  62 SE13      29.79F
HANNIBAL       CLEAR     55  28  35 SE12G17   29.82F
ROLLA          PTCLDY    56  34  43 SE14      29.81F
LEBANON        MOCLDY    57  36  44 SE17G23   29.80F
OSAGE BEACH    PTCLDY    59  36  41 SE9G17    29.79F
SPRINGFIELD    CLOUDY    61  41  47 SE25G36   29.72F
BRANSON        CLOUDY    59  41  51 SE14G20   29.81F
NEVADA         CLOUDY    63  46  55 S16       29.70F
JOPLIN         CLOUDY    67  49  52 S16G22    29.68R
WEST PLAINS    CLOUDY    54  37  52 SE6       29.87F
MALDEN         MOCLDY    50  43  76 CALM      29.92S

$$

IAZ060-094-KSZ022-034>040-054-083-096-NEZ052-066-093-241100-
...KANSAS...SOUTHEAST NEBRASKA AND IOWA...

CITY           SKY/WX    TMP DP  RH WIND       PRES   REMARKS
TOPEKA         LGT RAIN  71  56  58 SW12G28   29.61F
MANHATTAN      LGT RAIN  58  54  86 NE8       29.60F
EMPORIA        MOCLDY    67  56  67 S30       29.55F
CHANUTE        CLOUDY    68  54  60 S14       29.63F
WICHITA        CLOUDY    65  58  78 SW8       29.62R
OMAHA          CLOUDY    49  45  86 NW7       29.63F
LINCOLN        LGT RAIN  51  48  89 N5        29.65R FOG
FALLS CITY     CLOUDY    53  49  86 NW16      29.62R
LAMONI         CLOUDY    57  42  57 SE13      29.68R
DES MOINES     LGT RAIN  50  42  74 SE15G24   29.67F

$$




USA.gov is the U.S. government's official web portal to all federal, state and local government web resources and services.